Location: *
(24.1434°N, 56.8729°E)
Time: 05:52:19
(UTC+00:00)

MSX - Pass Details

Date: 09 April 2020
Orbit: 895 x 905 km, 98.8° (Epoch: 05 June)

Event Time Altitude Azimuth Distance (km) Brightness Sun altitude
Rises 23:25:30 0° 18° (NNE) 3,527 7.5 -33.3°
Reaches altitude 10° 23:27:57 10° 22° (NNE) 2,585 6.7 -32.8°
Maximum altitude 23:33:38 60° 101° (ESE) 1,024 4.2 -31.6°
Enters shadow 23:33:48 60° 110° (ESE) 1,026 4.1 -31.6°
